www.pogodaiklimat.ru

Погода и климат >> Архив погоды >> Мексика >> Coatzacoalcos


ПОГОДА в Coatzacoalcos

  • Прогноз погоды в Coatzacoalcos
  • Монитор погоды в Coatzacoalcos
  • Климат города

АРХИВ ПОГОДЫ в Coatzacoalcos

Время (UTC), дата Ветер
(напр.,м/с)
 
Видим.   Явления Облачность Т
(С)
Тd
(С)
f
(%)
Тe
(С)
Тes
(С)
Комфортность P
(гПа)
Po
(гПа)
Тmin
(С)
Tmax
(С)
R
(мм)
R24
(мм)
S
(см)
15 11.11 С 9
{13}
4000 м мгла {туман} 6/4 1500 м
[Cu med, cong Ac und]
+25.6 +23.1 86 +34 +34 очень
душно
1015.0 1013.2
18 11.11 С 7 4000 м мгла {туман} 6/4 1500 м
[Cu med, cong Ac trans]
+27.0 +23.7 82 +37 +39 очень
душно
1014.1 1012.2 +23.2 +27.5
21 11.11 СВ 6 4000 м мгла {туман} 8/5 1500 м
[Cu med, cong Ac und]
+25.0 +23.6 92 +34 +35 очень
душно
1012.1 1010.3
00 12.11 С 6 4000 м мгла {туман} 4/3 1500 м
[Cu med, cong Ac trans]
+26.4 +23.1 82 +35 +35 очень
душно
1011.8 1010.0 +23.2 +27.5
03 12.11 С 6 5000 м мгла {туман} ясно +25.7 +23.6 88 +35 +35 очень
душно
1012.7 1010.9
12 12.11 Ю 3 4000 м мгла {туман} 9/6 360 м
[Cu med, cong As op]
+23.6 +22.5 94 +31 +31 очень
душно
1011.2 1009.4 +21.2 +27.5
15 12.11 С 2 4000 м мгла {туман} 3/3 1500 м
[Cu med, cong]
+28.0 +25.0 84 +40 +44 очень
душно
1011.8 1010.0
18 12.11 СВ 2 15 км мгла {туман} 3/3 1500 м
[Cu med, cong]
+29.8 +25.1 76 +43 +53 опасность
перегрева
1010.6 1008.8 +21.2 +31.0
21 12.11 С 4 7000 м мгла {туман} 3/3 480 м
[Cu med, cong]
+29.2 +25.2 79 +42 +46 опасность
перегрева
1008.2 1006.3
00 13.11 СВ 3 6000 м мгла {туман} ясно +27.2 +25.6 91 +40 +40 очень
душно
1008.3 1006.5 +21.2 +31.2
03 13.11 СВ 3 4000 м мгла {туман} 6/5 360 м
[Cu med, cong Ac trans]
+26.8 +25.5 93 +39 +39 очень
душно
1010.6 1008.7
12 13.11 С 6 4000 м пыльная буря {туман} 9/6 330 м
[Cu med, cong As op]
+25.5 +23.6 89 +35 +35 очень
душно
1012.4 1010.6 +23.5 +31.2
15 13.11 С 18
{26}
4000 м пыльная буря на расстоянии {туман} 5/3 1500 м
[Cu med, cong Ac und]
+25.0 +23.3 90 +33 +33 очень
душно
1014.8 1012.9
18 13.11 С 19
{30}
4000 м пыльная буря на расстоянии {метель} 6/4 1500 м
[Cu med, cong Ac und]
+24.0 +23.7 98 +33 +33 очень
душно
1015.8 1014.0 +23.5 +27.5
03 14.11 СЗ 16 4000 м в посл. час морось {метель} 10/8 150 м
[St As op]
+20.2 +19.0 93 +23 +23 комфорт 1021.5 1019.6 0.3
06 14.11 СЗ 16 4000 м слабая морось {метель} 10/9 100 м
[St As op]
+20.0 +18.8 93 +22 +22 комфорт 1021.9 1020.0 0.8
09 14.11 СЗ 19
{30}
2000 м пыльная буря на расстоянии {метель} 10/8 150 м
[Sc As op]
+18.7 +17.6 93 +18 +18 1021.7 1019.8
12 14.11 СЗ 17 4000 м пыльная буря на расстоянии {метель} 10/8 210 м
[Sc As op]
+18.4 +16.5 89 +17 +17 1022.8 1020.9 +16.2 +27.5
15 14.11 СЗ 16
{24}
6000 м пыльная буря на расстоянии {метель} 9/6 330 м
[Sc diur, vesp Ac und]
+18.4 +15.9 85 +17 +17 1025.1 1023.2
18 14.11 СЗ 16 6000 м слабая морось 9/6 300 м
[Sc diur, vesp Ac und]
+18.8 +16.6 87 +18 +18 1025.1 1023.2 2
21 14.11 СЗ 15
{24}
6000 м сильная пыльная буря {морось, метель} 10/9 360 м
[St As op]
+18.0 +15.0 83 +16 +16 1023.2 1021.3
03 15.11 СЗ 12
{19}
4000 м пыльная буря на расстоянии 10/9 1500 м
[St As op]
+17.5 +16.4 93 +16 +16 1024.9 1023.0
06 15.11 СЗ 10 4000 м пыльная буря на расстоянии {морось} 10/8 1500 м
[St As op]
+18.0 +16.9 93 +17 +17 1023.4 1021.5 1
09 15.11 СЗ 10
{18}
4000 м пыльная буря на расстоянии 10/8 1500 м
[St As op]
+18.0 +17.1 94 +17 +17 1021.6 1019.7
12 15.11 СЗ 6 4000 м 10/8 1500 м
[St As op]
+17.8 +16.9 94 +15 +15 1021.8 1019.9 +15.0 +20.2
15 15.11 ЮЗ 3 4000 м слабый дождь {морось} 10/8 180 м
[Sc diur, vesp Ac und]
+14.6 +14.6 100 +14 +14 1023.6 1021.6 7
18 15.11 СЗ 8 6000 м слабая морось {дождь} 9/6 300 м
[Sc diur, vesp Ac und]
+19.2 +18.0 93 +20 +21 1023.1 1021.2 10
21 15.11 СЗ 10
{14}
6000 м мгла {туман} 9/6 330 м
[Sc diur, vesp Ac und]
+20.4 +18.0 86 +23 +23 комфорт 1019.5 1017.6
00 16.11 СЗ 7 6000 м мгла {туман} 10/8 300 м
[Sc diur, vesp Ac und]
+20.8 +18.1 85 +25 +25 комфорт 1019.3 1017.4 +13.8 +21.6
03 16.11 Ю 2 3000 м сильный дождь {морось} 10/8 210 м
[Cu med, cong As op]
+17.7 +17.5 99 +18 +18 1021.0 1019.1 10
06 16.11 ЮЗ 2 2000 м сильный дождь {морось} 10/8 200 м
[Cu med, cong As op]
+17.7 +17.4 98 +18 +18 1020.5 1018.6 24
09 16.11 ЮЗ 2 4000 м слабая морось {дождь} 10/8 <50 м
[Frnb As op]
+17.8 +17.8 100 +18 +18 1018.4 1016.5 5
12 16.11 ЮЗ 2 3000 м слабый дождь {морось} 10/8 <50 м
[Frnb As op]
+18.0 +18.0 100 +19 +19 1018.5 1016.6 18
15 16.11 Ю 2 4000 м слабый дождь 10/8 240 м
[Sc diur, vesp Ac und]
+18.6 +18.6 100 +20 +20 1019.5 1017.6 23
18 16.11 Ю 2 6000 м слабая морось {дождь} 9/6 300 м
[Sc diur, vesp Ac und]
+21.4 +20.8 96 +27 +30 душно 1018.5 1016.6 26
21 16.11 ЮЗ 1 10 км слабая морось {туман} 10/8 210 м
[Cu med, cong As op]
+22.3 +21.4 95 +29 +30 очень
душно
1016.1 1014.3 0.0
00 17.11 штиль 0 7000 м мгла {морось, туман} 6/5 200 м
[Cu med, cong As op]
+24.8 +19.9 74 +30 +30 душно 1016.1 1014.2 0.0
15 17.11 СВ 2 10 км мгла {туман} 6/6 210 м
[Cu med, cong]
+23.8 +20.3 81 +29 +31 душно 1018.1 1016.2
18 17.11 С 3 10 км мгла {туман} 5/4 240 м
[Cu med, cong]
+26.3 +21.3 74 +33 +40 очень
душно
1016.2 1014.3 +19.4 +28.0
00 18.11 С 5 10 км мгла {туман} 4/4 300 м
[Cu med, cong]
+24.6 +24.2 98 +34 +34 очень
душно
1014.3 1012.4 +19.4 +28.0
09 18.11 С 1 4000 м мгла {туман} 5/5 240 м
[Cu med, cong]
+23.7 +22.0 90 +31 +31 очень
душно
1014.6 1012.7

 

Местоположение метеостанции Coatzacoalcos (Мексика): широта 18.13 долгота -94.41 высота над уровнем моря 22 м.

В архиве по умолчанию представлена погода в Coatzacoalcos за последнюю неделю. Архивные данные за месяц целиком и за предыдущие месяцы, начиная с января 2011 года, Вы можете получить, выбрав интересующий диапазон дат из раскрывающегося списка и нажав кнопку "Ввод!".


*Определитесь, кто Вы:
робот инопланетянин человек

Внимание! Время в таблицах - всемирное. Для получения местного времени необходимо прибавить поправку, которая в Coatzacoalcos равна -6 ч.

Смотрите также архив погоды в соседних городах и на ближайших метеорологических станциях:

Погода в Villahermosa (Мексика) (157 км)
Погода в Tuxtla Gutierrez (Мексика) (205 км)
Погода в Verakruz (Мексика) (212 км)
Погода в Arriaga (Мексика) (218 км)
Погода в Salina Cruz (Мексика) (233 км)
Погода в Sn. Cristobal Las Casas (Мексика) (243 км)
Погода в Oaxaca (Мексика) (272 км)
Погода в Cordoba-In-Veracruz (Мексика) (279 км)
Погода в Orizaba (Мексика) (295 км)
Погода в Jalapa (Мексика) (307 км)

Пояснения к столбцам:

Ветер - указаны скорость ветра в м/с - средняя за 10 мин, порывы в срок и между сроками (в фигурных скобках) и направление, откуда дует ветер: С - северный, СВ - северо-восточный, В - восточный, ЮВ - юго-восточный, Ю - южный, ЮЗ - юго-западный, З - западный, СЗ - северо-западный.
Видимость - горизонтальная дальность видимости в метрах или километрах. При видимости от 1 до 10 км при отсутствии осадков обычно наблюдается дымка, при ухудшении видимости до 1 км и менее - туман. В сухую погоду видимость может ухудшаться дымом, пылью или мглою.
Явления - указаны атмосферные явления, наблюдавшиеся в срок или в последний час перед сроком; фигурными скобками обозначены явления, наблюдавшиеся между сроками (за 1-3 часа до срока); квадратными скобками обозначены град или гололедные отложения с указанием их диаметра в мм.
Облачность - указаны через наклонную черту общая и нижняя облачность в баллах и высота нижней границы облаков в метрах; квадратными скобками обозначены формы облаков: Ci - перистые, Cs - перисто-слоистые, Cc - перисто-кучевые, Ac - высококучевые, As - высокослоистые, Sc - слоисто-кучевые, Ns - слоисто-дождевые, Cu - кучевые, Cb - кучево-дождевые. Подробнее классификацию облаков см. в Атласе облаков (PDF).
T - Температура воздуха - температура, измеренная на высоте 2 м над землей.
Td - Температура точки росы - температура, при понижении до которой содержащийся в воздухе водяной пар достигнет насыщения.
f - Относительная влажность воздуха - влажноcть воздуха, измеренная на высоте 2 м над землей.
Te - Эффективная температура - температура, которую ощущает одетый по сезону человек в тени. Характеристика душности погоды. При расчете учитывается влияние влажности воздуха и скорости ветра на теплоощущения человека.
Tes - Эффективная температура на солнце - температура, которую ощущает человек, с поправкой на солнечный нагрев. Характеристика знойности погоды. Зависит от высоты солнца над горизонтом, облачности и скорости ветра. Ночью, в пасмурную погоду, а также при ветре 12 м/с и более поправка равна нулю.
P - Атмосферное давление - приведенное к уровню моря атмосферное давление.
Po - Атмосферное давление - измеренное на уровне метеостанции атмосферное давление.
Tmin - Минимальная температура - минимум температуры воздуха на высоте 2 м над землей.
Tmax - Максимальная температура - максимум температуры воздуха на высоте 2 м над землей.
R - Количество осадков - Количество выпавших осадков за период времени, мм. При наведении курсора мыши на число - период времени, за который выпало указанное количество осадков.
R24 - Количество осадков - Количество выпавших осадков за 24 часа, мм.
S - Снежный покров - Высота снежного покрова, см. При наведении курсора мыши на число - состояние снежного покрова и степень покрытия местности в баллах.